NIMBUS 2 DEB, 28619

Orbit data source: Space-Track

NIMBUS 2 DEB, 28619 is space debris in SSO originally from a launch on Sun, 15 May 1966 UTC launched from the Air Force Western Test Range (AFWTR). Debris objects in space refer to the collection of defunct objects orbiting the Earth. Examples of debris include non-operational satellites, rocket bodies, and fragments generated from explosions, collisions, or faulty payload assembly.

Loading next visibility...
Identifier
28619, 1966-040AJ
Orbit
SSO
Country
Flag of USUS
Related business
Manufacturer
Unknown
Mission
Spacecraft
Bus & Motor
Unknown
Mass
Unknown
Launch date (UTC)
1966-05-15 (60 years ago)
Launch vehicle
Unknown
Launch site
Air Force Western Test Range (AFWTR)
Object type
Payload
Rocket body
Debris
Shape & HBR
Unknown shape, 0.1 m
Radar Cross Section
Small (<0.1 m²)

Expand to show TLE details & history
Last TLE update: 4 months ago

TLE from 4 months ago
0 NIMBUS 2 DEB
1 28619U 66040AJ  26002.26206081  .00018129  00000-0  15171-1 0  9994
2 28619 100.3251 167.1806 0045816 304.7941 179.7557 13.87746798561790
Epoch: 2026-01-02T06:17Z
TLE epoch observation values (Epoch: 2026-01-02T06:17:22.053Z)
Latitude
54.22254°
Longitude
165.50024°
Altitude
978.883 km
Speed
7.351 km/s
True Right ascension
00h 06m 59s
True Declination
54° 03' 51"
Sunlit
Object was in daylight at epoch
Visualization orbit readout
Latitude
Unknown
Longitude
Unknown
Altitude
Unknown
Speed
Unknown
Apparent Right ascension
Unknown
Apparent Declination
Unknown
Sunlit
N/A
Visualization observer readout
Local Sidereal Time
05:10:51
Azimuth
Unknown
Elevation
Unknown
Doppler factor
Unknown
Orbital elements
Apogee altitude
967.323 km
Perigee altitude
900.322 km
Semi-major axis
7,311.96 km
Eccentricity
0.00458
Inclination
100.3251°
RAAN
167.1806°
Arg. of periapsis
304.7941°
True anomaly
179.75793°
Mean anomaly
179.7557°
Eccentric anomaly
179.75681°
Mean motion
3.4713 °/min
Orbital period
103.71 mins
BSTAR
0.015171
Loading maneuver chart data...
Computing Atmospheric mass density...
Loading historical data...
Loading historical data...
Loading historical data...
Loading historical data...
Loading historical data...
Loading historical data...
Loading historical data...

Documentation

Showing up to 5 results
|